This is the latest recevied weather packets stored in our database for station/object OM8AKX-12. If no packets are shown the sender has not sent any weather packets the latest 10 day(s).
| Time | Temp. | Humidity | Pressure | Rain* | Wind** | Luminosity | Snow |
|---|---|---|---|---|---|---|---|
| 1777685090 | 5.56° C | 86% | 1019.6 hPa | - | - | - | - |
| 1777684190 | 6.11° C | 85% | 1019.6 hPa | - | - | - | - |
| 1777682392 | 7.22° C | 80% | 1019.7 hPa | - | - | - | - |
| 1777681488 | 7.78° C | 77% | 1019.6 hPa | - | - | - | - |
| 1777680592 | 7.78° C | 77% | 1019.6 hPa | - | - | - | - |
| 1777679687 | 7.78° C | 77% | 1019.7 hPa | - | - | - | - |
| 1777678787 | 7.78° C | 77% | 1019.7 hPa | - | - | - | - |
| 1777677889 | 7.78° C | 76% | 1019.7 hPa | - | - | - | - |
| 1777676087 | 7.78° C | 73% | 1019.9 hPa | - | - | - | - |
| 1777675194 | 7.78° C | 73% | 1019.8 hPa | - | - | - | - |
| 1777674291 | 8.33° C | 72% | 1019.8 hPa | - | - | - | - |
| 1777673387 | 7.78° C | 74% | 1019.9 hPa | - | - | - | - |
| 1777672487 | 7.78° C | 74% | 1020 hPa | - | - | - | - |
| 1777671593 | 6.67° C | 76% | 1019.9 hPa | - | - | - | - |
| 1777670687 | 6.67° C | 74% | 1019.9 hPa | - | - | - | - |
| 1777669788 | 7.22° C | 69% | 1019.9 hPa | - | - | - | - |
| 1777667997 | 11.11° C | 53% | 1019.5 hPa | - | - | - | - |
| 1777667088 | 10.56° C | 55% | 1019.5 hPa | - | - | - | - |
| 1777665286 | 10° C | 58% | 1019.6 hPa | - | - | - | - |
| 1777664389 | 10.56° C | 56% | 1019.6 hPa | - | - | - | - |
| 1777663488 | 10.56° C | 56% | 1019.7 hPa | - | - | - | - |
| 1777662586 | 11.11° C | 54% | 1019.5 hPa | - | - | - | - |
| 1777661686 | 11.11° C | 53% | 1019.6 hPa | - | - | - | - |
| 1777660786 | 11.11° C | 54% | 1019.5 hPa | - | - | - | - |
| 1777659886 | 10.56° C | 54% | 1019.5 hPa | - | - | - | - |
* Rain since midnight (hover to see other rain measurements)
** Current wind speed in m/s (hover to see current wind gust speed)